Milford, UT

11:33 PM MDT on May 26, 2018 (GMT -0600)
Milford Municipal

Weather History for KMLF - October, 2012

Change the Weather History Date:

Saturday, October 27, 2012

  Actual Average Record
Temperature  
Mean Temperature 40 °F -  
Max Temperature 60 °F 56 °F 78 °F (2016)
Min Temperature 19 °F 28 °F 19 °F (2006)
Degree Days  
Heating Degree Days 26    
Moisture  
Dew Point 17 °F    
Average Humidity 42    
Maximum Humidity 74    
Minimum Humidity 10    
Precipitation  
Precipitation 0.00 in - - ()
Sea Level Pressure  
Sea Level Pressure 30.19 in    
Wind  
Wind Speed 5 mph (WSW)    
Max Wind Speed 9 mph    
Max Gust Speed -    
Visibility 10 miles    
Events      
Averages and records for this station are not official NWS values.
T = Trace of Precipitation, MM = Missing Value Source: NWS Daily Summary

Daily Weather History Graph

Daily Weather History Graph

Search for Another Location

Airport or City:

Astronomy

Oct. 27, 2012 Rise Set
Actual Time 7:53 AM MDT 6:37 PM MDT
Civil Twilight 7:26 AM MDT 7:04 PM MDT
Nautical Twilight 6:55 AM MDT 7:35 PM MDT
Astronomical Twilight 6:24 AM MDT 8:06 PM MDT
Moon 5:24 PM MDT 5:53 AM MDT
Length of Visible Light 11h 38m
Length of Day
10h 43m
Waxing Gibbous, 96% of the Moon is Illuminated
Oct 27
Waxing Gibbous
Oct 29
Full
Nov 6
Last Quarter
Nov 13
New
Nov 20
First Quarter

Hourly Weather History & Observations

Time (MDT) Temp. Windchill Dew Point Humidity Pressure Visibility Wind Dir Wind Speed Gust Speed Precip Events Conditions
12:52 AM 32.0 °F 24.2 °F 17.1 °F 54% 30.17 in 10.0 mi South 9.2 mph - N/A   Clear
1:52 AM 27.0 °F 19.5 °F 17.1 °F 66% 30.19 in 10.0 mi South 6.9 mph - N/A   Clear
2:52 AM 25.0 °F 18.1 °F 17.1 °F 72% 30.19 in 10.0 mi WSW 5.8 mph - N/A   Clear
3:52 AM 23.0 °F 15.8 °F 16.0 °F 74% 30.21 in 10.0 mi SSW 5.8 mph - N/A   Clear
4:52 AM 23.0 °F - 15.1 °F 72% 30.21 in 10.0 mi Calm Calm - N/A   Clear
5:52 AM 23.0 °F - 14.0 °F 68% 30.20 in 10.0 mi Calm Calm - N/A   Clear
6:52 AM 21.9 °F - 14.0 °F 72% 30.24 in 10.0 mi Calm Calm - N/A   Clear
7:52 AM 23.0 °F 18.4 °F 12.9 °F 65% 30.27 in 10.0 mi South 3.5 mph - N/A   Clear
8:52 AM 27.0 °F 21.6 °F 16.0 °F 63% 30.27 in 10.0 mi SSW 4.6 mph - N/A   Clear
9:52 AM 34.0 °F - 17.1 °F 50% 30.26 in 10.0 mi Calm Calm - N/A   Clear
10:52 AM 42.1 °F - 15.1 °F 34% 30.23 in 10.0 mi Calm Calm - N/A   Clear
11:52 AM 48.0 °F - 17.1 °F 29% 30.22 in 10.0 mi Variable 4.6 mph - N/A   Clear
12:52 PM 53.1 °F - 14.0 °F 21% 30.17 in 10.0 mi NNE 5.8 mph - N/A   Clear
1:52 PM 55.0 °F - 15.1 °F 21% 30.17 in 10.0 mi NE 5.8 mph - N/A   Clear
2:52 PM 59.0 °F - 18.0 °F 20% 30.13 in 10.0 mi North 4.6 mph - N/A   Clear
3:52 PM 59.0 °F - 17.1 °F 20% 30.13 in 10.0 mi Calm Calm - N/A   Clear
4:52 PM 59.0 °F - 19.0 °F 21% 30.12 in 10.0 mi NNE 6.9 mph - N/A   Clear
5:52 PM 54.0 °F - 21.9 °F 29% 30.13 in 10.0 mi North 6.9 mph - N/A   Clear
6:52 PM 46.9 °F - 19.9 °F 34% 30.17 in 10.0 mi NNW 9.2 mph - N/A   Clear
7:52 PM 48.0 °F - 19.0 °F 32% 30.18 in 10.0 mi Calm Calm - N/A   Clear
8:52 PM 43.0 °F - 19.0 °F 38% 30.18 in 10.0 mi Calm Calm - N/A   Clear
9:52 PM 44.1 °F - 19.0 °F 37% 30.17 in 10.0 mi Calm Calm - N/A   Clear
10:52 PM 45.0 °F - 19.0 °F 36% 30.15 in 10.0 mi Calm Calm - N/A   Clear
11:52 PM 41.0 °F 39.0 °F 19.0 °F 41% 30.14 in 10.0 mi SW 3.5 mph - N/A   Clear